📊 Raw Sensor Data

Showing records 33726 to 33750 of 84,796 total

ID Distance (ft) Battery V Battery A Int Temp (°F) Int Humid (%) Ext Temp (°F) Solar V RSSI SNR Time Stamp
51083 14.8 3.95 -5 58 44 60 0.00 -73 8 09/05/2025 12:15 AM
51082 14.8 3.89 -5 59 44 60 0.10 -72 8 09/05/2025 12:00 AM
51081 14.9 3.89 -5 59 44 60 0.00 -71 8 09/04/2025 11:45 PM
51080 14.8 3.89 -5 59 44 60 0.00 -72 8 09/04/2025 11:30 PM
51079 14.8 3.90 -5 60 45 60 0.10 -73 8 09/04/2025 11:15 PM
51078 14.8 3.90 -5 60 45 61 0.00 -71 7 09/04/2025 11:00 PM
51077 14.9 3.90 -5 60 45 61 0.00 -74 8 09/04/2025 10:45 PM
51076 14.9 3.90 -5 60 45 61 0.00 -72 8 09/04/2025 10:30 PM
51075 14.8 3.90 -5 61 45 62 0.00 -72 8 09/04/2025 10:15 PM
51074 14.8 3.90 -5 61 45 62 0.00 -72 8 09/04/2025 10:00 PM
51073 14.9 3.90 -5 61 46 62 0.00 -72 7 09/04/2025 09:45 PM
51072 14.8 3.90 -5 62 46 62 0.10 -71 7 09/04/2025 09:30 PM
51071 14.8 3.96 -5 62 46 63 0.10 -72 8 09/04/2025 09:15 PM
51070 14.8 3.96 -5 62 47 63 0.00 -74 8 09/04/2025 09:00 PM
51069 14.8 3.90 -5 63 48 63 0.00 -72 8 09/04/2025 08:45 PM
51068 14.8 3.90 -5 63 49 64 0.00 -73 8 09/04/2025 08:30 PM
51067 14.9 3.90 -5 64 50 64 0.00 -74 7 09/04/2025 08:15 PM
51066 14.9 3.90 -5 66 51 65 0.10 -72 8 09/04/2025 08:00 PM
51065 14.9 3.96 -5 68 52 66 1.20 -71 8 09/04/2025 07:45 PM
51064 14.9 3.90 -10 70 53 67 3.00 -73 8 09/04/2025 07:30 PM
51063 14.9 3.97 0 74 52 70 4.50 -73 7 09/04/2025 07:15 PM
51062 14.9 3.98 0 78 52 72 4.50 -73 8 09/04/2025 07:00 PM
51061 15.2 3.99 7 81 51 74 4.60 -74 7 09/04/2025 06:45 PM
51060 15.1 4.01 33 84 50 77 4.50 -74 7 09/04/2025 06:30 PM
51059 15.0 4.02 54 87 50 77 4.50 -72 8 09/04/2025 06:15 PM